QPF
0.02 0.04 0.08 0.04 0.06 0.04 0.05 0.05 0.06 0.10 0.13 0.13 0.09 0.04 0.02 0.03 0.02 0.03 0.04 0.02 0.00 0.00 0.00 0.00 0.00 0.00 0.00 0.00 0.00 0.00 0.00 0.00 0.00 0.00 0.00 0.00 0.00 0.00 0.00 0.00 0.00 0.00 0.00
0.04 0.06 0.09 0.06 0.10 0.07 0.06 0.05 0.07 0.12 0.16 0.18 0.13 0.08 0.03 0.04 0.07 0.09 0.05 0.01 0.00 0.00 0.00 0.00 0.00 0.00 0.00 0.00 0.00 0.00 0.00 0.00 0.00 0.00 0.00 0.00 0.00 0.00 0.00 0.00 0.00 0.00 0.00
0.03 0.04 0.10 0.09 0.15 0.11 0.07 0.05 0.08 0.11 0.14 0.14 0.13 0.08 0.06 0.11 0.12 0.06 0.02 0.00 0.00 0.00 0.00 0.00 0.00 0.00 0.00 0.00 0.00 0.00 0.00 0.00 0.00 0.00 0.00 0.00 0.00 0.00 0.00 0.00 0.00 0.00 0.00
0.03 0.04 0.06 0.06 0.20 0.21 0.07 0.05 0.09 0.09 0.11 0.10 0.10 0.10 0.12 0.13 0.06 0.03 0.00 0.00 0.00 0.00 0.00 0.00 0.00 0.00 0.00 0.00 0.00 0.00 0.00 0.00 0.00 0.00 0.00 0.00 0.00 0.00 0.00 0.00 0.00 0.00 0.00
0.01 0.05 0.06 0.14 0.27 0.19 0.06 0.05 0.08 0.10 0.12 0.10 0.11 0.13 0.11 0.08 0.03 0.01 0.00 0.00 0.00 0.00 0.00 0.00 0.00 0.00 0.00 0.00 0.00 0.00 0.00 0.00 0.00 0.00 0.00 0.00 0.00 0.00 0.00 0.00 0.00 0.00 0.00
0.01 0.04 0.11 0.22 0.26 0.16 0.06 0.06 0.07 0.11 0.10 0.06 0.10 0.09 0.05 0.03 0.01 0.00 0.00 0.00 0.00 0.00 0.00 0.00 0.00 0.00 0.00 0.00 0.00 0.00 0.00 0.00 0.00 0.00 0.00 0.00 0.00 0.00 0.00 0.00 0.00 0.00 0.00
0.04 0.06 0.17 0.22 0.18 0.12 0.07 0.05 0.09 0.09 0.03 0.02 0.04 0.04 0.03 0.01 0.00 0.00 0.00 0.00 0.00 0.00 0.00 0.00 0.00 0.00 0.00 0.00 0.00 0.00 0.00 0.00 0.00 0.00 0.00 0.00 0.00 0.00 0.00 0.00 0.00 0.00 0.00
0.07 0.11 0.18 0.15 0.12 0.09 0.05 0.07 0.13 0.08 0.01 0.02 0.05 0.03 0.02 0.00 0.00 0.00 0.00 0.00 0.00 0.00 0.00 0.00 0.00 0.00 0.00 0.00 0.00 0.00 0.00 0.00 0.00 0.00 0.00 0.00 0.00 0.00 0.00 0.00 0.00 0.00 0.00
0.14 0.14 0.13 0.06 0.04 0.06 0.10 0.13 0.11 0.03 0.01 0.03 0.03 0.02 0.00 0.00 0.00 0.00 0.00 0.00 0.00 0.00 0.00 0.00 0.00 0.00 0.00 0.00 0.00 0.00 0.00 0.00 0.00 0.00 0.00 0.00 0.00 0.00 0.00 0.00 0.00 0.00 0.00
0.07 0.06 0.04 0.01 0.02 0.06 0.11 0.08 0.04 0.01 0.03 0.04 0.02 0.00 0.00 0.00 0.00 0.00 0.00 0.00 0.00 0.00 0.00 0.00 0.00 0.00 0.00 0.00 0.00 0.00 0.00 0.00 0.00 0.00 0.00 0.00 0.00 0.00 0.00 0.00 0.00 0.00 0.00
0.03 0.01 0.02 0.01 0.01 0.03 0.04 0.01 0.01 0.01 0.02 0.01 0.00 0.00 0.00 0.00 0.00 0.00 0.00 0.00 0.00 0.00 0.00 0.00 0.00 0.00 0.00 0.00 0.00 0.00 0.00 0.00 0.00 0.00 0.00 0.00 0.00 0.00 0.00 0.00 0.00 0.00 0.00
0.00 0.00 0.00 0.00 0.00 0.01 0.01 0.00 0.01 0.02 0.01 0.00 0.00 0.00 0.00 0.00 0.00 0.00 0.00 0.00 0.00 0.00 0.00 0.00 0.00 0.00 0.00 0.00 0.00 0.00 0.00 0.00 0.00 0.00 0.00 0.00 0.00 0.00 0.00 0.00 0.00 0.00 0.00
0.00 0.00 0.00 0.00 0.00 0.00 0.01 0.01 0.01 0.00 0.00 0.00 0.00 0.00 0.00 0.00 0.00 0.00 0.00 0.00 0.00 0.00 0.00 0.00 0.00 0.00 0.00 0.00 0.00 0.00 0.00 0.00 0.00 0.00 0.00 0.00 0.00 0.00 0.00 0.00 0.00 0.00 0.00
0.00 0.00 0.00 0.00 0.00 0.00 0.01 0.01 0.01 0.00 0.00 0.00 0.00 0.00 0.00 0.00 0.00 0.00 0.00 0.00 0.00 0.00 0.00 0.00 0.00 0.00 0.00 0.00 0.00 0.00 0.00 0.00 0.00 0.00 0.00 0.00 0.00 0.00 0.00 0.00 0.00 0.00 0.00
0.00 0.00 0.00 0.00 0.00 0.00 0.00 0.00 0.00 0.00 0.00 0.00 0.00 0.00 0.00 0.00 0.00 0.00 0.00 0.00 0.00 0.00 0.00 0.00 0.00 0.00 0.00 0.00 0.00 0.00 0.00 0.00 0.00 0.00 0.00 0.00 0.00 0.00 0.00 0.00 0.00 0.00 0.00
0.00 0.00 0.01 0.01 0.00 0.00 0.00 0.00 0.00 0.00 0.00 0.00 0.00 0.00 0.00 0.00 0.00 0.00 0.00 0.00 0.00 0.00 0.00 0.00 0.00 0.00 0.00 0.00 0.00 0.00 0.00 0.00 0.00 0.00 0.00 0.00 0.00 0.00 0.00 0.00 0.00 0.00 0.00
0.00 0.00 0.00 0.00 0.00 0.00 0.00 0.00 0.00 0.00 0.00 0.00 0.00 0.00 0.00 0.00 0.00 0.00 0.00 0.00 0.00 0.00 0.00 0.00 0.00 0.00 0.00 0.00 0.00 0.00 0.00 0.00 0.00 0.00 0.00 0.00 0.00 0.00 0.00 0.00 0.00 0.00 0.00
0.00 0.00 0.00 0.00 0.00 0.00 0.00 0.00 0.00 0.00 0.00 0.00 0.00 0.00 0.00 0.00 0.00 0.00 0.00 0.00 0.00 0.00 0.00 0.00 0.00 0.00 0.00 0.00 0.00 0.00 0.00 0.00 0.00 0.00 0.00 0.00 0.00 0.00 0.00 0.00 0.00 0.00 0.00
0.00 0.00 0.00 0.00 0.00 0.00 0.00 0.00 0.00 0.00 0.00 0.00 0.00 0.00 0.00 0.00 0.00 0.00 0.00 0.00 0.00 0.00 0.00 0.00 0.00 0.00 0.00 0.00 0.00 0.00 0.00 0.00 0.00 0.00 0.00 0.00 0.00 0.00 0.00 0.00 0.00 0.00 0.00
0.00 0.00 0.00 0.00 0.00 0.00 0.00 0.00 0.00 0.00 0.00 0.00 0.00 0.00 0.00 0.00 0.00 0.00 0.00 0.00 0.00 0.00 0.00 0.00 0.00 0.00 0.00 0.00 0.00 0.00 0.00 0.00 0.00 0.00 0.00 0.00 0.00 0.00 0.00 0.00 0.00 0.00 0.00
0.00 0.00 0.00 0.00 0.00 0.00 0.00 0.00 0.00 0.00 0.00 0.00 0.00 0.00 0.00 0.00 0.00 0.00 0.00 0.00 0.00 0.00 0.00 0.00 0.00 0.00 0.00 0.00 0.00 0.00 0.00 0.00 0.00 0.00 0.00 0.00 0.00 0.00 0.00 0.00 0.00 0.00 0.00
0.00 0.00 0.00 0.00 0.00 0.00 0.00 0.00 0.00 0.00 0.00 0.00 0.00 0.00 0.00 0.00 0.00 0.00 0.00 0.00 0.00 0.00 0.00 0.00 0.00 0.00 0.00 0.00 0.00 0.00 0.00 0.00 0.00 0.00 0.00 0.00 0.00 0.00 0.00 0.00 0.00 0.00 0.00
0.00 0.00 0.00 0.00 0.00 0.00 0.00 0.00 0.00 0.00 0.00 0.00 0.00 0.00 0.00 0.00 0.00 0.00 0.00 0.00 0.00 0.00 0.00 0.00 0.00 0.00 0.00 0.00 0.00 0.00 0.00 0.00 0.00 0.00 0.00 0.00 0.00 0.00 0.00 0.00 0.00 0.00 0.00
0.00 0.00 0.00 0.00 0.00 0.00 0.00 0.00 0.00 0.00 0.00 0.00 0.00 0.00 0.00 0.00 0.00 0.00 0.00 0.00 0.00 0.00 0.00 0.00 0.00 0.00 0.00 0.00 0.00 0.00 0.00 0.00 0.00 0.00 0.00 0.00 0.00 0.00 0.00 0.00 0.00 0.00 0.00
0.00 0.00 0.00 0.00 0.00 0.00 0.00 0.00 0.00 0.00 0.00 0.00 0.00 0.00 0.00 0.00 0.00 0.00 0.00 0.00 0.00 0.00 0.00 0.00 0.00 0.00 0.00 0.00 0.00 0.00 0.00 0.00 0.00 0.00 0.00 0.00 0.00 0.00 0.00 0.00 0.00 0.00 0.00
0.00 0.00 0.00 0.00 0.00 0.00 0.00 0.00 0.00 0.00 0.00 0.00 0.00 0.00 0.00 0.00 0.00 0.00 0.00 0.00 0.00 0.00 0.00 0.00 0.00 0.00 0.00 0.00 0.00 0.00 0.00 0.00 0.00 0.00 0.00 0.00 0.00 0.00 0.00 0.00 0.00 0.00 0.00
MSLP
996.81 996.94 997.43 998.41 998.94 999.95 1000.91 1001.77 1002.97 1003.97 1004.50 1005.63 1006.70 1007.43 1008.09 1009.50 1011.37 1012.84 1014.06 1014.39 1015.33 1016.35 1017.08 1017.50 1017.97 1018.20 1018.59 1018.61 1018.61 1018.98 1019.14 1019.36 1020.18 1020.11 1019.49 1018.53 1017.81 1017.35 1016.97 1016.55 1015.79 1014.94 1014.19
995.53 995.95 996.70 997.58 998.24 999.45 1000.27 1000.97 1002.32 1003.43 1004.64 1005.51 1006.80 1007.92 1008.53 1009.93 1011.07 1012.80 1014.43 1014.64 1016.31 1017.10 1017.76 1018.01 1018.40 1018.79 1019.21 1019.12 1019.38 1019.83 1019.84 1019.98 1020.58 1020.46 1019.81 1019.05 1018.18 1017.73 1017.39 1016.89 1015.78 1014.67 1014.20
994.54 994.66 995.25 996.47 997.76 998.69 999.63 1000.47 1001.94 1003.38 1004.55 1006.08 1006.70 1007.73 1009.38 1010.43 1011.49 1013.02 1014.65 1015.50 1016.88 1017.83 1018.36 1018.46 1018.92 1019.21 1019.42 1019.42 1019.74 1019.98 1020.01 1020.44 1020.59 1020.50 1020.08 1019.36 1018.56 1017.85 1017.24 1016.96 1016.21 1014.79 1014.05
993.57 993.71 994.24 995.62 996.58 998.24 999.30 1000.22 1001.62 1003.14 1004.42 1006.09 1006.12 1007.44 1009.62 1011.17 1011.81 1013.62 1014.55 1016.78 1017.58 1018.52 1018.74 1019.03 1019.20 1019.21 1019.40 1019.58 1019.86 1020.04 1020.37 1020.56 1020.57 1020.51 1020.02 1019.62 1019.39 1018.47 1017.68 1017.38 1016.26 1014.88 1014.18
993.43 993.20 993.42 994.77 995.89 997.68 999.49 1000.35 1001.80 1003.12 1004.64 1005.97 1007.47 1007.37 1010.34 1011.93 1012.85 1014.30 1015.79 1016.98 1018.28 1018.98 1019.37 1019.29 1019.39 1019.04 1019.12 1019.42 1019.54 1020.31 1020.33 1020.73 1020.73 1020.51 1020.37 1020.08 1019.69 1018.94 1018.23 1017.73 1016.60 1015.47 1014.58
993.08 992.86 993.23 994.38 995.77 998.12 999.92 1001.03 1002.40 1003.99 1005.38 1006.64 1007.59 1008.75 1010.93 1012.93 1013.96 1015.40 1016.09 1017.49 1018.71 1019.26 1019.54 1019.91 1019.86 1019.71 1019.62 1019.65 1019.78 1019.97 1020.30 1020.49 1020.63 1020.38 1020.55 1020.46 1020.27 1019.60 1018.62 1018.12 1016.93 1015.79 1015.45
992.13 992.34 992.39 993.89 996.06 998.58 1000.11 1002.13 1003.07 1004.96 1006.83 1007.70 1009.30 1010.20 1012.31 1012.99 1015.62 1015.90 1017.28 1018.34 1018.89 1019.42 1019.73 1020.06 1020.37 1020.43 1020.19 1019.98 1020.16 1020.28 1020.69 1020.59 1020.31 1020.07 1021.07 1020.58 1020.55 1019.76 1019.21 1018.36 1017.52 1017.26 1016.54
991.06 991.73 992.54 994.40 996.73 999.37 1000.40 1002.59 1004.32 1005.81 1007.91 1007.10 1010.14 1012.11 1014.34 1015.13 1015.45 1016.90 1018.28 1018.76 1019.23 1019.92 1020.31 1020.69 1020.86 1020.98 1020.78 1020.46 1020.59 1020.80 1020.88 1020.91 1020.33 1020.10 1021.17 1020.39 1020.31 1019.91 1019.16 1018.58 1018.03 1017.54 1015.91
990.16 991.22 993.06 995.25 997.79 998.41 1000.74 1002.57 1004.28 1006.29 1008.42 1009.95 1012.61 1013.71 1014.33 1016.76 1016.57 1017.75 1018.46 1019.03 1019.74 1020.44 1020.66 1021.09 1021.09 1021.00 1020.99 1021.02 1021.16 1021.38 1021.50 1021.26 1020.66 1020.63 1020.70 1020.05 1020.04 1019.49 1018.93 1018.58 1018.28 1017.48 1016.21
990.54 992.11 993.80 995.55 998.08 1000.19 1001.02 1002.31 1004.73 1005.92 1009.69 1011.45 1013.37 1013.95 1016.40 1017.57 1017.79 1018.37 1018.71 1018.74 1020.48 1020.63 1021.52 1021.67 1021.47 1021.37 1021.55 1021.65 1021.37 1022.03 1021.53 1021.97 1021.40 1021.27 1020.98 1020.56 1020.30 1019.74 1019.15 1019.23 1018.91 1017.94 1017.39
992.74 993.32 995.59 998.34 1000.04 1000.62 1002.26 1003.15 1004.33 1007.52 1009.52 1013.04 1013.55 1015.99 1017.47 1017.87 1018.31 1018.87 1019.28 1019.80 1020.49 1021.09 1021.80 1022.19 1022.09 1021.93 1021.78 1021.86 1021.69 1021.96 1022.21 1022.15 1021.69 1021.96 1021.62 1021.14 1020.71 1020.37 1019.79 1019.36 1018.69 1018.27 1018.00
994.67 995.67 997.58 999.86 1001.55 1001.53 1003.54 1004.80 1007.03 1006.58 1011.60 1013.40 1014.17 1016.16 1017.66 1018.89 1018.99 1019.08 1019.92 1020.91 1021.22 1021.27 1022.05 1022.41 1022.58 1022.30 1022.52 1022.38 1022.14 1022.07 1023.09 1021.83 1022.33 1022.65 1022.28 1022.16 1021.95 1021.24 1020.50 1019.71 1018.76 1018.34 1017.72
997.17 998.72 1000.05 1001.01 1002.59 1003.75 1004.39 1007.09 1008.43 1009.46 1011.42 1013.02 1014.46 1016.58 1018.35 1019.25 1019.25 1020.02 1021.48 1021.34 1021.38 1021.89 1022.18 1022.72 1023.06 1022.58 1023.25 1023.11 1022.62 1022.91 1023.10 1022.88 1023.40 1023.26 1023.30 1023.19 1022.51 1021.66 1020.90 1019.90 1018.97 1018.52 1017.47
998.78 1000.74 1001.56 1002.29 1004.56 1006.12 1007.62 1009.47 1010.21 1009.61 1011.97 1014.02 1015.39 1017.15 1018.50 1019.49 1020.36 1021.41 1021.96 1022.32 1021.87 1022.09 1022.59 1023.41 1023.45 1022.89 1024.02 1023.47 1023.09 1024.19 1023.85 1024.35 1024.53 1024.77 1024.50 1023.65 1022.76 1021.74 1021.18 1020.41 1019.66 1018.60 1017.64
1001.27 1003.09 1003.89 1005.43 1006.77 1008.28 1010.03 1010.86 1011.19 1011.60 1012.92 1014.56 1016.49 1017.61 1018.67 1020.14 1021.10 1021.50 1022.11 1022.60 1022.35 1022.51 1023.44 1023.94 1023.36 1024.78 1023.61 1024.16 1024.86 1024.80 1025.05 1025.31 1025.58 1025.16 1024.68 1024.11 1023.20 1022.62 1021.92 1020.93 1020.02 1019.04 1018.16
1003.62 1005.38 1006.56 1007.58 1008.85 1010.19 1011.20 1012.91 1013.71 1014.30 1015.11 1016.77 1017.55 1018.38 1019.65 1020.47 1021.60 1022.16 1022.52 1022.23 1022.85 1023.47 1023.76 1024.03 1025.73 1024.52 1025.05 1025.98 1026.14 1026.04 1026.33 1026.56 1025.99 1025.46 1025.21 1024.94 1024.13 1023.57 1022.68 1021.32 1020.43 1019.69 1018.65
1006.01 1007.30 1008.06 1008.72 1010.09 1011.39 1012.73 1014.24 1015.60 1017.35 1018.00 1019.01 1019.32 1019.83 1020.63 1021.52 1022.03 1022.59 1023.04 1022.94 1023.88 1023.91 1023.95 1025.94 1025.37 1025.97 1026.44 1027.10 1027.64 1027.69 1027.55 1026.97 1026.21 1025.93 1025.68 1025.91 1025.24 1024.22 1023.03 1021.87 1020.95 1020.16 1019.01
1007.69 1008.56 1009.19 1010.37 1011.49 1012.70 1013.97 1015.44 1016.67 1017.59 1018.93 1020.29 1020.77 1021.22 1021.93 1022.24 1022.73 1023.04 1022.60 1024.24 1024.59 1024.52 1025.89 1025.45 1026.63 1027.15 1027.27 1028.48 1028.50 1027.88 1027.60 1027.31 1027.23 1026.94 1026.60 1026.20 1025.64 1024.67 1023.49 1022.55 1021.64 1020.79 1019.77
1009.03 1009.72 1010.41 1011.58 1012.75 1013.80 1015.15 1016.46 1017.65 1018.83 1019.70 1020.77 1021.74 1022.36 1022.69 1023.13 1023.52 1023.30 1024.26 1024.60 1025.39 1025.86 1026.32 1027.44 1027.83 1027.87 1028.93 1028.78 1028.35 1027.69 1027.80 1027.86 1028.29 1028.09 1027.48 1026.71 1025.69 1024.89 1024.14 1023.30 1022.35 1021.44 1020.52
1011.31 1011.73 1012.30 1013.28 1014.54 1015.59 1016.85 1017.94 1019.08 1019.82 1020.35 1021.31 1022.32 1023.27 1023.68 1023.68 1023.99 1024.85 1025.17 1025.54 1025.83 1027.15 1028.30 1028.36 1028.71 1029.07 1029.27 1028.57 1028.06 1028.11 1028.19 1028.55 1029.01 1028.75 1027.86 1026.86 1025.93 1025.21 1024.55 1023.76 1022.91 1022.08 1021.26
1012.92 1013.32 1014.09 1014.86 1015.79 1016.79 1017.83 1018.83 1019.87 1020.43 1021.30 1022.43 1023.25 1023.25 1023.44 1023.93 1024.69 1025.50 1026.02 1026.62 1027.46 1028.12 1028.60 1029.21 1029.54 1029.51 1029.13 1028.65 1028.58 1028.76 1028.88 1029.03 1029.20 1028.67 1027.97 1027.04 1026.30 1025.61 1024.80 1024.11 1023.52 1022.74 1022.01
1013.92 1014.56 1015.56 1016.22 1017.06 1018.04 1019.12 1020.26 1021.00 1021.50 1022.08 1022.62 1023.59 1023.90 1024.02 1024.70 1025.58 1026.48 1027.02 1027.52 1028.31 1028.82 1029.13 1029.31 1029.62 1029.51 1029.39 1029.47 1029.26 1029.62 1029.51 1029.51 1029.06 1028.39 1027.85 1027.27 1026.58 1025.88 1025.15 1024.48 1023.96 1023.34 1022.64
1015.11 1015.83 1016.88 1017.81 1018.59 1019.45 1020.23 1020.99 1021.72 1022.34 1023.11 1023.60 1023.78 1024.46 1025.60 1025.95 1026.58 1027.14 1028.28 1028.74 1028.74 1029.09 1029.06 1029.44 1029.50 1029.85 1029.95 1029.66 1029.74 1030.12 1029.79 1029.41 1028.88 1028.37 1027.92 1027.44 1026.77 1026.12 1025.60 1025.19 1024.54 1023.95 1023.42
1015.98 1016.81 1017.94 1018.87 1019.65 1020.38 1021.22 1021.80 1022.17 1022.84 1023.59 1024.26 1025.12 1025.69 1026.33 1026.92 1027.66 1028.45 1028.47 1028.49 1028.81 1028.99 1029.47 1029.87 1030.19 1030.09 1030.19 1030.31 1030.37 1030.11 1029.53 1028.98 1028.49 1028.26 1027.91 1027.49 1026.99 1026.48 1026.09 1025.62 1025.10 1024.57 1024.09
1017.14 1018.06 1019.15 1019.93 1020.58 1021.25 1021.89 1023.04 1023.60 1024.08 1024.82 1025.25 1025.98 1026.60 1026.96 1027.63 1028.04 1028.11 1028.28 1028.61 1029.14 1029.74 1030.18 1030.45 1030.41 1030.41 1030.58 1030.67 1030.39 1029.79 1029.25 1028.83 1028.53 1028.24 1027.91 1027.52 1027.18 1026.97 1026.63 1026.18 1025.71 1025.22 1024.71
1018.77 1019.56 1020.57 1021.09 1021.83 1022.52 1023.16 1023.88 1024.48 1024.84 1025.22 1026.00 1026.79 1026.93 1027.32 1027.66 1027.70 1028.06 1028.76 1029.33 1029.68 1030.07 1030.39 1030.62 1030.85 1030.86 1030.77 1030.63 1030.21 1029.86 1029.45 1029.05 1028.74 1028.40 1028.08 1027.83 1027.64 1027.43 1027.02 1026.64 1026.25 1025.90 1025.43
Thickness
5661 5670 5681 5687 5701 5711 5715 5717 5716 5718 5721 5718 5715 5709 5705 5697 5684 5676 5670 5672 5666 5658 5651 5646 5641 5636 5630 5627 5623 5613 5607 5599 5586 5579 5576 5576 5573 5567 5561 5556 5554 5552 5546
5660 5666 5675 5680 5693 5701 5707 5716 5715 5716 5711 5709 5706 5692 5693 5683 5679 5668 5659 5661 5650 5643 5637 5635 5631 5626 5619 5616 5609 5600 5595 5587 5576 5570 5566 5565 5564 5558 5552 5546 5542 5540 5532
5652 5662 5673 5677 5687 5696 5702 5710 5709 5705 5701 5695 5700 5686 5677 5673 5667 5659 5648 5647 5638 5629 5624 5624 5620 5615 5611 5606 5598 5592 5587 5577 5568 5561 5559 5555 5554 5550 5545 5533 5528 5526 5518
5647 5660 5672 5674 5690 5690 5695 5702 5700 5697 5695 5687 5691 5678 5666 5656 5656 5643 5640 5628 5623 5616 5615 5613 5611 5608 5603 5597 5591 5585 5576 5569 5561 5555 5552 5547 5539 5536 5533 5525 5520 5514 5508
5638 5654 5671 5680 5687 5684 5682 5689 5686 5688 5681 5682 5670 5663 5654 5644 5636 5628 5623 5619 5609 5606 5604 5607 5604 5605 5601 5593 5587 5575 5569 5558 5552 5548 5543 5535 5528 5522 5518 5509 5508 5506 5498
5631 5649 5666 5677 5676 5670 5670 5672 5672 5670 5666 5663 5658 5651 5641 5627 5621 5613 5617 5608 5601 5599 5598 5594 5592 5591 5589 5585 5579 5572 5563 5554 5546 5542 5532 5523 5513 5507 5502 5496 5491 5492 5483
5631 5652 5668 5670 5664 5660 5661 5655 5663 5654 5649 5633 5627 5633 5617 5614 5598 5608 5601 5596 5595 5592 5591 5587 5584 5580 5576 5574 5569 5563 5554 5548 5544 5538 5518 5512 5501 5497 5490 5484 5479 5469 5465
5638 5650 5657 5655 5653 5650 5657 5649 5646 5644 5635 5638 5619 5608 5596 5591 5599 5597 5588 5587 5587 5582 5579 5575 5572 5567 5566 5563 5558 5551 5545 5537 5534 5529 5507 5503 5493 5486 5480 5476 5470 5461 5465
5644 5649 5648 5648 5647 5656 5651 5645 5641 5633 5620 5614 5597 5588 5593 5582 5589 5585 5584 5582 5578 5572 5572 5567 5563 5561 5559 5554 5549 5541 5533 5526 5521 5510 5498 5493 5483 5479 5476 5471 5461 5460 5463
5642 5645 5648 5645 5632 5636 5649 5642 5631 5633 5609 5592 5584 5587 5578 5576 5577 5578 5581 5582 5567 5566 5559 5555 5556 5554 5549 5544 5540 5527 5524 5508 5503 5493 5487 5482 5477 5473 5467 5458 5452 5452 5447
5629 5641 5637 5623 5622 5631 5630 5632 5634 5612 5603 5575 5582 5571 5568 5572 5572 5571 5571 5568 5563 5557 5551 5548 5547 5545 5543 5536 5529 5520 5508 5497 5493 5482 5477 5474 5468 5461 5456 5452 5450 5445 5438
5619 5621 5616 5612 5607 5622 5615 5615 5596 5611 5580 5573 5577 5570 5564 5559 5563 5568 5563 5553 5550 5550 5546 5542 5539 5538 5530 5523 5518 5511 5489 5493 5481 5471 5468 5460 5452 5450 5449 5447 5445 5438 5435
5600 5597 5594 5598 5597 5591 5597 5583 5585 5584 5583 5580 5576 5564 5556 5555 5562 5556 5542 5547 5547 5544 5540 5535 5529 5528 5518 5510 5506 5491 5483 5478 5467 5462 5453 5447 5447 5446 5444 5443 5441 5434 5435
5590 5578 5583 5587 5577 5573 5572 5566 5570 5587 5579 5570 5566 5560 5556 5552 5547 5541 5541 5538 5540 5537 5532 5524 5519 5520 5501 5500 5492 5474 5470 5459 5452 5443 5438 5440 5441 5443 5441 5439 5437 5439 5440
5569 5563 5567 5563 5561 5559 5555 5559 5569 5571 5572 5568 5559 5555 5552 5547 5541 5539 5533 5531 5534 5531 5520 5515 5517 5493 5501 5486 5469 5463 5453 5446 5438 5436 5435 5434 5436 5434 5433 5434 5435 5437 5438
5561 5553 5552 5551 5553 5554 5555 5546 5547 5554 5555 5550 5552 5551 5545 5539 5530 5529 5528 5532 5525 5519 5515 5512 5483 5494 5479 5462 5454 5445 5437 5432 5433 5433 5429 5424 5427 5425 5426 5431 5432 5432 5435
5554 5550 5555 5561 5557 5552 5549 5546 5542 5534 5535 5533 5535 5536 5534 5529 5527 5524 5521 5525 5514 5511 5509 5481 5487 5473 5459 5448 5434 5426 5425 5428 5431 5428 5423 5415 5415 5419 5424 5428 5430 5430 5433
5556 5558 5559 5555 5552 5550 5546 5542 5540 5539 5532 5525 5525 5525 5520 5521 5520 5520 5526 5505 5503 5500 5481 5485 5467 5453 5448 5430 5423 5426 5425 5423 5419 5416 5413 5412 5412 5415 5420 5422 5424 5425 5428
5556 5558 5558 5554 5550 5548 5543 5538 5533 5528 5526 5520 5517 5515 5516 5515 5512 5516 5501 5500 5488 5481 5476 5456 5448 5443 5427 5423 5425 5426 5421 5416 5407 5403 5404 5406 5412 5413 5414 5415 5416 5419 5420
5543 5545 5547 5544 5539 5535 5530 5527 5524 5523 5523 5519 5515 5508 5506 5508 5504 5495 5491 5485 5481 5463 5447 5443 5436 5428 5421 5425 5426 5421 5415 5408 5397 5394 5400 5405 5409 5410 5410 5410 5411 5412 5414
5536 5537 5536 5536 5534 5531 5528 5525 5520 5519 5516 5510 5505 5507 5505 5500 5493 5486 5480 5471 5458 5448 5440 5431 5423 5420 5422 5422 5418 5412 5406 5400 5394 5395 5397 5402 5404 5404 5405 5405 5404 5405 5406
5532 5533 5531 5529 5527 5524 5519 5514 5512 5512 5511 5508 5501 5497 5496 5490 5481 5470 5464 5457 5445 5436 5429 5426 5421 5418 5415 5408 5407 5399 5396 5393 5393 5396 5397 5397 5398 5400 5400 5400 5399 5399 5400
5528 5527 5520 5517 5517 5515 5513 5510 5507 5503 5499 5497 5497 5490 5478 5474 5467 5460 5447 5439 5436 5429 5427 5422 5418 5410 5403 5402 5398 5391 5391 5391 5393 5393 5393 5392 5393 5394 5393 5392 5392 5392 5391
5525 5522 5517 5515 5513 5509 5505 5503 5503 5500 5496 5489 5480 5475 5467 5458 5450 5441 5440 5437 5431 5428 5420 5412 5405 5402 5397 5392 5388 5387 5390 5391 5392 5390 5389 5388 5387 5387 5386 5385 5384 5384 5383
5517 5515 5511 5508 5507 5504 5502 5494 5491 5487 5480 5476 5469 5460 5455 5447 5442 5440 5436 5432 5425 5416 5408 5401 5398 5393 5388 5384 5384 5387 5388 5388 5386 5384 5383 5382 5380 5379 5377 5376 5375 5375 5376
5506 5503 5498 5497 5493 5490 5488 5485 5481 5478 5475 5466 5456 5451 5447 5443 5442 5436 5427 5420 5414 5407 5400 5394 5389 5385 5383 5382 5382 5381 5381 5380 5378 5376 5375 5374 5371 5369 5368 5367 5366 5365 5365